Glens Falls, NY

9:01 AM EDT on July 26, 2017 (GMT -0400)
Bennett Memorial

Weather History for KGFL - April, 2014

Change the Weather History Date:

Sunday, April 6, 2014

  Actual Average Record
Temperature  
Mean Temperature 41 °F 41 °F  
Max Temperature 56 °F 52 °F 73 °F (1991)
Min Temperature 26 °F 29 °F 13 °F (1982)
Degree Days  
Heating Degree Days 24 24  
Month to date heating degree days 153 153  
Since 1 July heating degree days 7232 6816  
Cooling Degree Days 0 0  
Month to date cooling degree days 0 0  
Year to date cooling degree days 0 0  
Moisture  
Dew Point 21 °F    
Average Humidity 50    
Maximum Humidity 75    
Minimum Humidity 24    
Precipitation  
Precipitation 0.00 in 0.10 in 1.03 in (1958)
Month to date precipitation 0.43 0.57  
Year to date precipitation 7.68 8.45  
Sea Level Pressure  
Sea Level Pressure 30.13 in    
Wind  
Wind Speed 6 mph (WSW)    
Max Wind Speed 14 mph    
Max Gust Speed 18 mph    
Visibility 10 miles    
Events      
T = Trace of Precipitation, MM = Missing Value Source: NWS Daily Summary

Daily Weather History Graph

Daily Weather History Graph

Search for Another Location

Airport or City:

Trip Planner

Search our weather history database for the weather conditions in past years. The results will help you decide how hot, cold, wet, or windy it might be!

Date:

Astronomy

Apr. 06, 2014 Rise Set
Actual Time 6:27 AM EDT 7:26 PM EDT
Civil Twilight 5:58 AM EDT 7:56 PM EDT
Nautical Twilight 5:23 AM EDT 8:30 PM EDT
Astronomical Twilight 4:47 AM EDT 9:07 PM EDT
Moon 11:20 AM EDT (4/6) 1:26 AM EDT (4/6)
Length of Visible Light 13h 57m
Length of Day
12h 59m
Waxing Crescent, 43% of the Moon is Illuminated
Apr 6
Waxing Crescent
Apr 7
First Quarter
Apr 15
Full
Apr 22
Last Quarter
Apr 29
New

Hourly Weather History & Observations

Time (EDT) Temp. Windchill Dew Point Humidity Pressure Visibility Wind Dir Wind Speed Gust Speed Precip Events Conditions
12:53 AM 36.0 °F 32.1 °F 21.9 °F 57% 30.05 in 10.0 mi West 4.6 mph - N/A   Overcast
1:53 AM 35.1 °F 31.0 °F 21.9 °F 59% 30.06 in 10.0 mi WSW 4.6 mph - N/A   Overcast
2:53 AM 34.0 °F 28.8 °F 21.0 °F 59% 30.07 in 10.0 mi WSW 5.8 mph - N/A   Overcast
3:53 AM 34.0 °F 28.8 °F 19.9 °F 56% 30.09 in 10.0 mi WSW 5.8 mph - N/A   Overcast
4:53 AM 33.1 °F 27.7 °F 19.9 °F 59% 30.11 in 10.0 mi West 5.8 mph - N/A   Overcast
5:53 AM 30.9 °F 27.5 °F 19.9 °F 64% 30.13 in 10.0 mi West 3.5 mph - N/A   Clear
6:53 AM 28.9 °F 23.9 °F 21.0 °F 72% 30.16 in 10.0 mi WSW 4.6 mph - N/A   Clear
7:53 AM 34.0 °F 28.0 °F 19.0 °F 54% 30.17 in 10.0 mi WNW 6.9 mph - N/A   Clear
8:53 AM 36.0 °F 32.1 °F 19.0 °F 50% 30.19 in 10.0 mi Variable 4.6 mph - N/A   Clear
9:53 AM 37.0 °F 34.5 °F 19.0 °F 48% 30.19 in 10.0 mi SSE 3.5 mph - N/A   Clear
10:53 AM 39.0 °F - 19.0 °F 45% 30.17 in 10.0 mi North - - N/A   Clear
11:53 AM 43.0 °F 40.3 °F 21.9 °F 43% 30.17 in 10.0 mi SSE 4.6 mph - N/A   Clear
12:53 PM 46.4 °F - 19.4 °F 34% 30.13 in 10.0 mi North - - N/A   Clear
1:53 PM 51.1 °F - 19.0 °F 28% 30.14 in 10.0 mi NNW 10.4 mph - N/A   Clear
2:53 PM 53.1 °F - 19.9 °F 27% 30.12 in 10.0 mi South 8.1 mph 17.3 mph N/A   Clear
3:53 PM 55.0 °F - 19.0 °F 24% 30.11 in 10.0 mi West 8.1 mph - N/A   Clear
4:53 PM 55.0 °F - 21.0 °F 27% 30.10 in 10.0 mi SW 9.2 mph - N/A   Clear
5:53 PM 55.0 °F - 23.0 °F 29% 30.10 in 10.0 mi WSW 10.4 mph - N/A   Clear
6:53 PM 53.1 °F - 23.0 °F 31% 30.11 in 10.0 mi SW 6.9 mph - N/A   Clear
7:53 PM 46.9 °F - 24.1 °F 41% 30.13 in 10.0 mi SW 4.6 mph - N/A   Clear
8:53 PM 45.0 °F 41.2 °F 24.1 °F 44% 30.16 in 10.0 mi WSW 6.9 mph - N/A   Clear
9:53 PM 45.0 °F 41.8 °F 23.0 °F 42% 30.18 in 10.0 mi WSW 5.8 mph - N/A   Clear
10:53 PM 43.0 °F - 23.0 °F 45% 30.20 in 10.0 mi Calm Calm - N/A   Clear
11:53 PM 36.0 °F - 24.1 °F 62% 30.19 in 10.0 mi Calm Calm - N/A   Clear